{"data":{"norad_id":55988,"intl_designator":"2023-042C","name":"STARLINK-5916","alt_names":[],"object_type":"PAYLOAD","status":"ACTIVE","operator":null,"country":"US","launch_date":"2023-03-24","launch_site_code":"AFETR","launch_vehicle":null,"mission":null,"orbit_class":"UNKNOWN","rcs_meters":null,"size_class":null,"mass_kg":null,"dimensions":null,"purposes":["comms"],"wikipedia_slug":null,"has_3d_model":false,"image_url":null,"decayed_at":null,"tle_current":{"epoch":"2026-09-20T21:09:25.029216Z","epoch_age_seconds":73262,"freshness":"FRESH","line1":"1 55988U 23042C   26263.88153969  .00000419  00000+0  24736-4 0  9993","line2":"2 55988  43.0027  41.3654 0001169 266.8459  93.2259 15.27577214192679","mean_motion":15.27577214,"eccentricity":0.0001169,"inclination_deg":43.0027,"raan_deg":41.3654,"arg_perigee_deg":266.8459,"mean_anomaly_deg":93.2259,"bstar":2.4736e-5,"rev_number":19267,"period_min":94.266920637637,"perigee_km":482.25536470875,"apogee_km":483.85951196843,"semimajor_km":6861.1944383386,"source":"CELESTRAK","updated_at":"2026-09-21T09:00:33.349734Z"}}}